Zurück zum Katalog

DELTA 1 DEB

AktivPO
NORAD 8004·DEBRIS·🇺🇸 United States

Gestartet Jul 23, 1972 von Vandenberg Space Force Base

Loading…

Nächste Überflüge (nächste 24 Stunden)

TLE

AktuellSource: Space-Track

Epoche: Sep 14, 2026, 11:07 UTC

1 08004U 72058DF  26257.46356591  .00002253  00000-0  56621-3 0  9990
2 08004  97.5707 253.3862 0180941 348.0044  11.6866 14.42709189787672

Verfolge DELTA 1 DEB in Echtzeit mit AllMySat

Download on the App Store